AMX301 MMAA-MMGL

Flight info

Callsign AMX301
Flight time 0h 50m
Altitude 36000
Route AGLON1B AGLON UT145 IGSON IGSON1B
Aircraft B738/M-SDE2E3FGHIRWXY/LB1

Departure

Time 2026-05-04 03:43
Airport General Juan N. Álvarez International Airport (MMAA)

Arrival

Time 2026-05-04 04:33
Airport Guadalajara International Airport (MMGL)
Time Latitude Longitude Altitude Speed Heading
2026-05-04 03:23 16.76147 -99.75557 20 ft 0 kts 16°
2026-05-04 03:33 16.76143 -99.75559 20 ft 2 kts 16°
2026-05-04 03:33 16.76127 -99.75564 20 ft 2 kts 18°
2026-05-04 03:34 16.76111 -99.75570 22 ft 2 kts 20°
2026-05-04 03:34 16.76096 -99.75576 23 ft 2 kts 23°
2026-05-04 03:34 16.76081 -99.75583 22 ft 2 kts 28°
2026-05-04 03:34 16.76067 -99.75592 23 ft 2 kts 40°
2026-05-04 03:35 16.76056 -99.75605 20 ft 2 kts 75°
2026-05-04 03:35 16.76055 -99.75619 20 ft 1 kts 104°
2026-05-04 03:35 16.76056 -99.75622 20 ft 0 kts 105°
2026-05-04 03:37 16.76050 -99.75599 20 ft 7 kts 105°
2026-05-04 03:37 16.76029 -99.75528 21 ft 8 kts 109°
2026-05-04 03:38 16.76012 -99.75470 20 ft 11 kts 107°
2026-05-04 03:38 16.75988 -99.75391 22 ft 11 kts 108°
2026-05-04 03:38 16.75924 -99.75350 20 ft 11 kts 164°
2026-05-04 03:38 16.75904 -99.75340 20 ft 4 kts 134°
2026-05-04 03:39 16.75875 -99.75270 20 ft 15 kts 108°
2026-05-04 03:39 16.75827 -99.75117 22 ft 24 kts 108°
2026-05-04 03:39 16.75775 -99.74949 19 ft 30 kts 108°
2026-05-04 03:39 16.75709 -99.74738 21 ft 30 kts 108°
2026-05-04 03:40 16.75645 -99.74535 20 ft 29 kts 108°
2026-05-04 03:40 16.75585 -99.74345 23 ft 27 kts 108°
2026-05-04 03:40 16.75547 -99.74223 21 ft 27 kts 108°
2026-05-04 03:40 16.75468 -99.73961 21 ft 28 kts 109°
2026-05-04 03:41 16.75426 -99.73833 21 ft 27 kts 107°
2026-05-04 03:41 16.75351 -99.73594 22 ft 25 kts 108°
2026-05-04 03:41 16.75316 -99.73480 20 ft 24 kts 108°
2026-05-04 03:41 16.75248 -99.73335 20 ft 23 kts 154°
2026-05-04 03:42 16.75126 -99.73360 21 ft 12 kts 198°
2026-05-04 03:42 16.75096 -99.73421 20 ft 1 kts 287°
2026-05-04 03:43 16.75159 -99.73625 19 ft 77 kts 288°
2026-05-04 03:43 16.75421 -99.74462 28 ft 162 kts 287°
2026-05-04 03:43 16.75809 -99.75694 685 ft 182 kts 289°
2026-05-04 03:43 16.76219 -99.76963 1866 ft 181 kts 288°
2026-05-04 03:44 16.76622 -99.78284 2688 ft 205 kts 287°
2026-05-04 03:44 16.77094 -99.79806 2944 ft 232 kts 288°
2026-05-04 03:44 16.77605 -99.81417 3270 ft 241 kts 288°
2026-05-04 03:44 16.78138 -99.83090 3629 ft 246 kts 287°
2026-05-04 03:45 16.78678 -99.84800 4036 ft 250 kts 287°
2026-05-04 03:45 16.79329 -99.86493 4474 ft 255 kts 301°
2026-05-04 03:45 16.80555 -99.87836 4989 ft 258 kts 323°
2026-05-04 03:45 16.82197 -99.88626 5389 ft 264 kts 343°
2026-05-04 03:46 16.83966 -99.89124 5882 ft 264 kts 345°
2026-05-04 03:46 16.85792 -99.89617 5997 ft 281 kts 345°
2026-05-04 03:46 16.87712 -99.90138 6006 ft 286 kts 345°
2026-05-04 03:46 16.89645 -99.90667 6028 ft 288 kts 345°
2026-05-04 03:47 16.91583 -99.91204 6017 ft 288 kts 345°
2026-05-04 03:47 16.93517 -99.91743 6045 ft 287 kts 345°
2026-05-04 03:47 16.95440 -99.92315 6044 ft 288 kts 338°
2026-05-04 03:47 16.97107 -99.93424 6194 ft 291 kts 320°
2026-05-04 03:48 16.98683 -99.94779 6851 ft 293 kts 320°
2026-05-04 03:48 17.00256 -99.96139 7575 ft 294 kts 320°
2026-05-04 03:48 17.01838 -99.97508 8273 ft 298 kts 320°
2026-05-04 03:48 17.03451 -99.98895 8932 ft 302 kts 321°
2026-05-04 03:49 17.05091 -100.00302 9608 ft 307 kts 321°
2026-05-04 03:49 17.06748 -100.01722 10292 ft 310 kts 321°
2026-05-04 03:49 17.08466 -100.03191 10562 ft 330 kts 322°
2026-05-04 03:49 17.10303 -100.04759 10769 ft 350 kts 322°
2026-05-04 03:50 17.12220 -100.06398 11231 ft 359 kts 321°
2026-05-04 03:50 17.14152 -100.08050 11889 ft 360 kts 322°
2026-05-04 03:50 17.16100 -100.09715 12601 ft 362 kts 322°
2026-05-04 03:50 17.18053 -100.11384 13301 ft 364 kts 322°
2026-05-04 03:51 17.20023 -100.13065 13978 ft 367 kts 322°
2026-05-04 03:51 17.22009 -100.14763 14603 ft 370 kts 322°
2026-05-04 03:51 17.24011 -100.16476 15241 ft 373 kts 322°
2026-05-04 03:51 17.26024 -100.18198 15912 ft 375 kts 322°
2026-05-04 03:52 17.28024 -100.19909 16555 ft 377 kts 322°
2026-05-04 03:52 17.30064 -100.21655 17202 ft 380 kts 322°
2026-05-04 03:52 17.32114 -100.23411 17844 ft 382 kts 322°
2026-05-04 03:52 17.34180 -100.25179 18443 ft 385 kts 322°
2026-05-04 03:53 17.36259 -100.26962 18972 ft 387 kts 322°
2026-05-04 03:53 17.38347 -100.28752 19511 ft 389 kts 322°
2026-05-04 03:53 17.40451 -100.30555 20036 ft 391 kts 322°
2026-05-04 03:53 17.42563 -100.32366 20556 ft 394 kts 322°
2026-05-04 03:54 17.44682 -100.34183 21090 ft 395 kts 323°
2026-05-04 03:54 17.46817 -100.36016 21561 ft 398 kts 323°
2026-05-04 03:54 17.48968 -100.37863 22034 ft 400 kts 323°
2026-05-04 03:54 17.51139 -100.39726 22499 ft 404 kts 323°
2026-05-04 03:55 17.53311 -100.41595 22992 ft 405 kts 323°
2026-05-04 03:55 17.55470 -100.43453 23434 ft 407 kts 323°
2026-05-04 03:55 17.57666 -100.45343 23832 ft 410 kts 323°
2026-05-04 03:55 17.59872 -100.47242 24219 ft 411 kts 323°
2026-05-04 03:56 17.62086 -100.49148 24604 ft 412 kts 323°
2026-05-04 03:56 17.64307 -100.51062 24995 ft 414 kts 323°
2026-05-04 03:56 17.66542 -100.52987 25325 ft 417 kts 323°
2026-05-04 03:56 17.68790 -100.54925 25690 ft 419 kts 322°
2026-05-04 03:57 17.71044 -100.56869 26061 ft 420 kts 322°
2026-05-04 03:57 17.73307 -100.58821 26407 ft 422 kts 322°
2026-05-04 03:57 17.75580 -100.60782 26736 ft 424 kts 322°
2026-05-04 03:57 17.77834 -100.62727 27077 ft 425 kts 322°
2026-05-04 03:58 17.82436 -100.66697 27489 ft 435 kts 322°
2026-05-04 03:58 17.84794 -100.68732 27554 ft 442 kts 322°
2026-05-04 03:58 17.88828 -100.72218 27641 ft 453 kts 322°
2026-05-04 03:59 17.93765 -100.76487 27735 ft 464 kts 322°
2026-05-04 03:59 17.98598 -100.80683 27888 ft 471 kts 322°
2026-05-04 03:59 18.01127 -100.82887 27961 ft 474 kts 322°
2026-05-04 03:59 18.03672 -100.85107 28040 ft 475 kts 321°
2026-05-04 04:00 18.08780 -100.89564 28100 ft 478 kts 322°
2026-05-04 04:00 18.11314 -100.91774 28240 ft 477 kts 321°
2026-05-04 04:00 18.14287 -100.94361 28406 ft 476 kts 322°
2026-05-04 04:01 18.19396 -100.98782 28860 ft 471 kts 322°
2026-05-04 04:01 18.24323 -101.03054 30404 ft 446 kts 322°
2026-05-04 04:01 18.29072 -101.07175 31231 ft 441 kts 321°
2026-05-04 04:01 18.33807 -101.11286 31799 ft 442 kts 321°
2026-05-04 04:02 18.38538 -101.15399 32498 ft 440 kts 321°
2026-05-04 04:02 18.43246 -101.19494 33215 ft 438 kts 321°
2026-05-04 04:02 18.47927 -101.23569 33888 ft 436 kts 320°
2026-05-04 04:02 18.52602 -101.27643 34482 ft 435 kts 320°
2026-05-04 04:03 18.57273 -101.31714 35040 ft 435 kts 320°
2026-05-04 04:03 18.61937 -101.35787 35474 ft 435 kts 320°
2026-05-04 04:03 18.66579 -101.39845 36015 ft 434 kts 319°
2026-05-04 04:03 18.71276 -101.43957 36004 ft 444 kts 319°
2026-05-04 04:04 18.80737 -101.52247 36000 ft 440 kts 319°
2026-05-04 04:04 18.89988 -101.60361 36001 ft 424 kts 319°
2026-05-04 04:05 18.99058 -101.68331 36042 ft 427 kts 319°
2026-05-04 04:05 19.11907 -101.79636 35865 ft 442 kts 319°
2026-05-04 04:06 19.14273 -101.81723 35552 ft 440 kts 319°
2026-05-04 04:06 19.16615 -101.83788 35101 ft 436 kts 319°
2026-05-04 04:06 19.18933 -101.85833 34700 ft 431 kts 319°
2026-05-04 04:06 19.21227 -101.87857 34283 ft 428 kts 319°
2026-05-04 04:07 19.23503 -101.89866 33833 ft 424 kts 319°
2026-05-04 04:07 19.25727 -101.91830 33377 ft 420 kts 319°
2026-05-04 04:07 19.27963 -101.93805 32940 ft 416 kts 319°
2026-05-04 04:07 19.30179 -101.95764 32520 ft 412 kts 319°
2026-05-04 04:08 19.32370 -101.97702 32104 ft 408 kts 320°
2026-05-04 04:08 19.34538 -101.99620 31696 ft 404 kts 320°
2026-05-04 04:08 19.36689 -102.01522 31292 ft 401 kts 320°
2026-05-04 04:08 19.38841 -102.03385 30894 ft 398 kts 323°
2026-05-04 04:09 19.41168 -102.04953 30549 ft 394 kts 333°
2026-05-04 04:09 19.43639 -102.06202 30186 ft 391 kts 334°
2026-05-04 04:09 19.46098 -102.07405 29749 ft 388 kts 334°
2026-05-04 04:09 19.48542 -102.08596 29305 ft 384 kts 334°
2026-05-04 04:10 19.50961 -102.09783 28883 ft 381 kts 334°
2026-05-04 04:10 19.53317 -102.10947 28476 ft 378 kts 334°
2026-05-04 04:10 19.55686 -102.12123 28070 ft 374 kts 334°
2026-05-04 04:10 19.58036 -102.13295 27680 ft 371 kts 334°
2026-05-04 04:11 19.60366 -102.14458 27271 ft 369 kts 334°
2026-05-04 04:11 19.62686 -102.15617 26878 ft 367 kts 334°
2026-05-04 04:11 19.64988 -102.16768 26481 ft 364 kts 334°
2026-05-04 04:11 19.67272 -102.17911 26092 ft 362 kts 334°
2026-05-04 04:12 19.69543 -102.19046 25701 ft 360 kts 334°
2026-05-04 04:12 19.71809 -102.20181 25309 ft 358 kts 334°
2026-05-04 04:12 19.74060 -102.21308 24908 ft 357 kts 334°
2026-05-04 04:12 19.76304 -102.22432 24511 ft 356 kts 334°
2026-05-04 04:13 19.78548 -102.23557 24116 ft 355 kts 334°
2026-05-04 04:13 19.80752 -102.24661 23726 ft 355 kts 334°
2026-05-04 04:13 19.82986 -102.25781 23279 ft 354 kts 334°
2026-05-04 04:13 19.85211 -102.26896 22860 ft 352 kts 334°
2026-05-04 04:14 19.87416 -102.28005 22461 ft 349 kts 332°
2026-05-04 04:14 19.89364 -102.29501 22062 ft 346 kts 314°
2026-05-04 04:14 19.90769 -102.31560 21671 ft 345 kts 296°
2026-05-04 04:14 19.91653 -102.33918 21302 ft 343 kts 290°
2026-05-04 04:15 19.92418 -102.36321 20910 ft 343 kts 289°
2026-05-04 04:15 19.93181 -102.38718 20529 ft 342 kts 290°
2026-05-04 04:15 19.93963 -102.41107 20139 ft 341 kts 290°
2026-05-04 04:15 19.94755 -102.43485 19752 ft 341 kts 290°
2026-05-04 04:16 19.95549 -102.45865 19357 ft 341 kts 289°
2026-05-04 04:16 19.96342 -102.48244 18976 ft 341 kts 289°
2026-05-04 04:16 19.97134 -102.50626 18579 ft 342 kts 289°
2026-05-04 04:16 19.97929 -102.53015 18173 ft 343 kts 289°
2026-05-04 04:17 19.98721 -102.55400 17692 ft 343 kts 289°
2026-05-04 04:17 19.99517 -102.57795 17221 ft 343 kts 289°
2026-05-04 04:17 20.00457 -102.60111 16808 ft 342 kts 303°
2026-05-04 04:17 20.02046 -102.61967 16425 ft 340 kts 323°
2026-05-04 04:18 20.04048 -102.63218 16063 ft 337 kts 332°
2026-05-04 04:18 20.06152 -102.64320 15672 ft 336 kts 333°
2026-05-04 04:18 20.08251 -102.65406 15289 ft 334 kts 333°
2026-05-04 04:18 20.10330 -102.66506 14899 ft 333 kts 332°
2026-05-04 04:19 20.12392 -102.67614 14520 ft 331 kts 332°
2026-05-04 04:19 20.14479 -102.68660 14134 ft 331 kts 341°
2026-05-04 04:19 20.16747 -102.68954 13914 ft 326 kts
2026-05-04 04:19 20.18917 -102.68415 13849 ft 315 kts 20°
2026-05-04 04:20 20.20875 -102.67549 13833 ft 303 kts 22°
2026-05-04 04:20 20.22766 -102.66658 13813 ft 294 kts 22°
2026-05-04 04:20 20.24629 -102.65780 13813 ft 292 kts 22°
2026-05-04 04:20 20.26499 -102.64913 13819 ft 294 kts 22°
2026-05-04 04:21 20.28381 -102.64050 13822 ft 295 kts 20°
2026-05-04 04:21 20.30368 -102.63746 13707 ft 288 kts 348°
2026-05-04 04:21 20.32180 -102.64535 13445 ft 281 kts 322°
2026-05-04 04:21 20.33509 -102.66037 13060 ft 279 kts 301°
2026-05-04 04:22 20.34270 -102.67919 12763 ft 276 kts 283°
2026-05-04 04:22 20.34650 -102.69915 12477 ft 275 kts 279°
2026-05-04 04:22 20.34966 -102.71915 12218 ft 273 kts 279°
2026-05-04 04:22 20.35273 -102.73910 11926 ft 272 kts 279°
2026-05-04 04:23 20.35583 -102.75889 11660 ft 270 kts 279°
2026-05-04 04:23 20.35896 -102.77862 11380 ft 269 kts 279°
2026-05-04 04:23 20.36212 -102.79817 11139 ft 267 kts 279°
2026-05-04 04:23 20.36529 -102.81767 10811 ft 268 kts 279°
2026-05-04 04:24 20.36845 -102.83691 10573 ft 266 kts 279°
2026-05-04 04:24 20.37162 -102.85615 10376 ft 262 kts 279°
2026-05-04 04:24 20.37477 -102.87531 10125 ft 260 kts 279°
2026-05-04 04:24 20.37789 -102.89425 9930 ft 260 kts 279°
2026-05-04 04:25 20.38101 -102.91311 9739 ft 256 kts 279°
2026-05-04 04:25 20.38407 -102.93166 9571 ft 250 kts 279°
2026-05-04 04:25 20.38706 -102.94977 9401 ft 245 kts 279°
2026-05-04 04:25 20.38989 -102.96715 9251 ft 238 kts 279°
2026-05-04 04:26 20.39272 -102.98420 9145 ft 228 kts 279°
2026-05-04 04:26 20.39542 -103.00041 9009 ft 217 kts 279°
2026-05-04 04:26 20.39801 -103.01584 8886 ft 205 kts 281°
2026-05-04 04:26 20.40269 -103.02964 8790 ft 192 kts 292°
2026-05-04 04:27 20.40814 -103.04224 8733 ft 185 kts 293°
2026-05-04 04:27 20.41352 -103.05464 8678 ft 183 kts 293°
2026-05-04 04:27 20.41883 -103.06704 8615 ft 185 kts 293°
2026-05-04 04:27 20.42431 -103.07972 8494 ft 191 kts 293°
2026-05-04 04:28 20.42980 -103.09259 8348 ft 190 kts 293°
2026-05-04 04:28 20.43522 -103.10535 8227 ft 189 kts 293°
2026-05-04 04:28 20.44059 -103.11803 8062 ft 186 kts 292°
2026-05-04 04:28 20.44582 -103.13040 7927 ft 179 kts 292°
2026-05-04 04:29 20.45084 -103.14229 7805 ft 174 kts 292°
2026-05-04 04:29 20.45569 -103.15378 7611 ft 170 kts 292°
2026-05-04 04:29 20.46043 -103.16504 7419 ft 164 kts 292°
2026-05-04 04:29 20.46361 -103.17257 7309 ft 165 kts 292°
2026-05-04 04:30 20.46974 -103.18716 7073 ft 160 kts 292°
2026-05-04 04:30 20.47423 -103.19768 6900 ft 153 kts 292°
2026-05-04 04:30 20.47863 -103.20784 6687 ft 145 kts 292°
2026-05-04 04:30 20.48137 -103.21430 6607 ft 137 kts 292°
2026-05-04 04:31 20.48676 -103.22719 6385 ft 146 kts 291°
2026-05-04 04:31 20.48950 -103.23377 6294 ft 147 kts 291°
2026-05-04 04:31 20.49366 -103.24373 6149 ft 147 kts 292°
2026-05-04 04:31 20.49782 -103.25370 5960 ft 146 kts 292°
2026-05-04 04:32 20.50193 -103.26356 5760 ft 146 kts 292°
2026-05-04 04:32 20.50606 -103.27346 5498 ft 146 kts 293°
2026-05-04 04:32 20.51009 -103.28321 5280 ft 139 kts 292°
2026-05-04 04:32 20.51401 -103.29256 5095 ft 140 kts 292°
2026-05-04 04:33 20.51783 -103.30169 5026 ft 123 kts 292°
2026-05-04 04:33 20.52081 -103.30870 5030 ft 83 kts 294°
2026-05-04 04:33 20.52252 -103.31274 5029 ft 28 kts 296°